owner,sensor,date,latitude,longitude,vertical_datum,sea_water_temperature,qcFlag 
TABS,ioos:station:wmo:42051:1,2011-07-01T00:00:00Z,29.6350,-93.6417,-2.0,31.0,11111222 
TABS,ioos:station:wmo:42051:1,2011-07-01T00:30:00Z,29.6350,-93.6417,-2.0,31.03,11111222 
TABS,ioos:station:wmo:42051:1,2011-07-01T01:00:00Z,29.6350,-93.6417,-2.0,30.96,11111222 
TABS,ioos:station:wmo:42051:1,2011-07-01T01:30:00Z,29.6350,-93.6417,-2.0,30.89,11111222 
TABS,ioos:station:wmo:42051:1,2011-07-01T02:00:00Z,29.6350,-93.6417,-2.0,30.83,11111222 
TABS,ioos:station:wmo:42051:1,2011-07-01T02:30:00Z,29.6350,-93.6417,-2.0,30.78,11111222 
TABS,ioos:station:wmo:42051:1,2011-07-01T03:00:00Z,29.6350,-93.6417,-2.0,30.73,11111222 
TABS,ioos:station:wmo:42051:1,2011-07-01T03:30:00Z,29.6350,-93.6417,-2.0,30.67,11111222 
TABS,ioos:station:wmo:42051:1,2011-07-01T04:00:00Z,29.6350,-93.6417,-2.0,30.61,11111222 
TABS,ioos:station:wmo:42051:1,2011-07-01T04:30:00Z,29.6350,-93.6417,-2.0,30.58,11111222 
TABS,ioos:station:wmo:42051:1,2011-07-01T05:00:00Z,29.6350,-93.6417,-2.0,30.59,11111222 
TABS,ioos:station:wmo:42051:1,2011-07-01T05:30:00Z,29.6350,-93.6417,-2.0,30.62,11111222 
TABS,ioos:station:wmo:42051:1,2011-07-01T06:00:00Z,29.6350,-93.6417,-2.0,30.64,11111222 
TABS,ioos:station:wmo:42051:1,2011-07-01T06:30:00Z,29.6350,-93.6417,-2.0,30.64,11111222 
TABS,ioos:station:wmo:42051:1,2011-07-01T07:00:00Z,29.6350,-93.6417,-2.0,30.62,11111222 
TABS,ioos:station:wmo:42051:1,2011-07-01T07:30:00Z,29.6350,-93.6417,-2.0,30.57,11111222 
TABS,ioos:station:wmo:42051:1,2011-07-01T08:00:00Z,29.6350,-93.6417,-2.0,30.52,11111222 
TABS,ioos:station:wmo:42051:1,2011-07-01T08:30:00Z,29.6350,-93.6417,-2.0,30.48,11111222 
TABS,ioos:station:wmo:42051:1,2011-07-01T09:00:00Z,29.6350,-93.6417,-2.0,30.45,11111222 
TABS,ioos:station:wmo:42051:1,2011-07-01T09:30:00Z,29.6350,-93.6417,-2.0,30.42,11111222 
TABS,ioos:station:wmo:42051:1,2011-07-01T10:00:00Z,29.6350,-93.6417,-2.0,30.37,11111222 
TABS,ioos:station:wmo:42051:1,2011-07-01T10:30:00Z,29.6350,-93.6417,-2.0,30.25,11111222 
TABS,ioos:station:wmo:42051:1,2011-07-01T11:00:00Z,29.6350,-93.6417,-2.0,30.22,11111222 
TABS,ioos:station:wmo:42051:1,2011-07-01T11:30:00Z,29.6350,-93.6417,-2.0,30.22,11111222 
TABS,ioos:station:wmo:42051:1,2011-07-01T12:00:00Z,29.6350,-93.6417,-2.0,30.2,11111222 
TABS,ioos:station:wmo:42051:1,2011-07-01T12:30:00Z,29.6350,-93.6417,-2.0,30.2,11111222 
TABS,ioos:station:wmo:42051:1,2011-07-01T13:00:00Z,29.6350,-93.6417,-2.0,30.22,11111222 
TABS,ioos:station:wmo:42051:1,2011-07-01T13:30:00Z,29.6350,-93.6417,-2.0,30.23,11111222 
TABS,ioos:station:wmo:42051:1,2011-07-01T14:00:00Z,29.6350,-93.6417,-2.0,30.24,11111222 
TABS,ioos:station:wmo:42051:1,2011-07-01T14:30:00Z,29.6350,-93.6417,-2.0,30.28,11111222 
TABS,ioos:station:wmo:42051:1,2011-07-01T15:00:00Z,29.6350,-93.6417,-2.0,30.29,11111222 
TABS,ioos:station:wmo:42051:1,2011-07-01T15:30:00Z,29.6350,-93.6417,-2.0,30.29,11111222 
TABS,ioos:station:wmo:42051:1,2011-07-01T16:00:00Z,29.6350,-93.6417,-2.0,30.38,11111222 
TABS,ioos:station:wmo:42051:1,2011-07-01T16:30:00Z,29.6350,-93.6417,-2.0,30.47,11111222 
TABS,ioos:station:wmo:42051:1,2011-07-01T17:00:00Z,29.6350,-93.6417,-2.0,30.35,11111222 
TABS,ioos:station:wmo:42051:1,2011-07-01T17:30:00Z,29.6350,-93.6417,-2.0,30.35,11111222 
TABS,ioos:station:wmo:42051:1,2011-07-01T18:00:00Z,29.6350,-93.6417,-2.0,30.38,11111222 
TABS,ioos:station:wmo:42051:1,2011-07-01T18:30:00Z,29.6350,-93.6417,-2.0,30.46,11111222 
TABS,ioos:station:wmo:42051:1,2011-07-01T19:00:00Z,29.6350,-93.6417,-2.0,30.58,11111222 
TABS,ioos:station:wmo:42051:1,2011-07-01T19:30:00Z,29.6350,-93.6417,-2.0,30.55,11111222 
TABS,ioos:station:wmo:42051:1,2011-07-01T20:00:00Z,29.6350,-93.6417,-2.0,30.48,11111222 
TABS,ioos:station:wmo:42051:1,2011-07-01T20:30:00Z,29.6350,-93.6417,-2.0,30.56,11111222 
TABS,ioos:station:wmo:42051:1,2011-07-01T21:00:00Z,29.6350,-93.6417,-2.0,30.62,11111222 
TABS,ioos:station:wmo:42051:1,2011-07-01T21:30:00Z,29.6350,-93.6417,-2.0,30.76,11111222 
TABS,ioos:station:wmo:42051:1,2011-07-01T22:00:00Z,29.6350,-93.6417,-2.0,31.0,11111222 
TABS,ioos:station:wmo:42051:1,2011-07-01T22:30:00Z,29.6350,-93.6417,-2.0,31.2,11111222 
TABS,ioos:station:wmo:42051:1,2011-07-01T23:00:00Z,29.6350,-93.6417,-2.0,31.2,11111222 
TABS,ioos:station:wmo:42051:1,2011-07-01T23:30:00Z,29.6350,-93.6417,-2.0,31.2,11111222 
TABS,ioos:station:wmo:42051:1,2011-07-02T00:00:00Z,29.6350,-93.6417,-2.0,31.2,11111222 
TABS,ioos:station:wmo:42051:1,2011-07-02T00:30:00Z,29.6350,-93.6417,-2.0,31.0,11111222 
TABS,ioos:station:wmo:42051:1,2011-07-02T01:00:00Z,29.6350,-93.6417,-2.0,30.5,11111222 
TABS,ioos:station:wmo:42051:1,2011-07-02T01:30:00Z,29.6350,-93.6417,-2.0,30.8,11111222 
TABS,ioos:station:wmo:42051:1,2011-07-02T02:00:00Z,29.6350,-93.6417,-2.0,30.5,11111222 
TABS,ioos:station:wmo:42051:1,2011-07-02T02:30:00Z,29.6350,-93.6417,-2.0,30.51,11111222 
TABS,ioos:station:wmo:42051:1,2011-07-02T03:00:00Z,29.6350,-93.6417,-2.0,30.42,11111222 
TABS,ioos:station:wmo:42051:1,2011-07-02T03:30:00Z,29.6350,-93.6417,-2.0,30.4,11111222 
TABS,ioos:station:wmo:42051:1,2011-07-02T04:00:00Z,29.6350,-93.6417,-2.0,30.38,11111222 
TABS,ioos:station:wmo:42051:1,2011-07-02T04:30:00Z,29.6350,-93.6417,-2.0,30.36,11111222 
TABS,ioos:station:wmo:42051:1,2011-07-02T05:00:00Z,29.6350,-93.6417,-2.0,30.36,11111222 
TABS,ioos:station:wmo:42051:1,2011-07-02T05:30:00Z,29.6350,-93.6417,-2.0,30.35,11111222 
TABS,ioos:station:wmo:42051:1,2011-07-02T06:00:00Z,29.6350,-93.6417,-2.0,30.27,11111222 
TABS,ioos:station:wmo:42051:1,2011-07-02T06:30:00Z,29.6350,-93.6417,-2.0,30.26,11111222 
TABS,ioos:station:wmo:42051:1,2011-07-02T07:00:00Z,29.6350,-93.6417,-2.0,30.33,11111222 
TABS,ioos:station:wmo:42051:1,2011-07-02T07:30:00Z,29.6350,-93.6417,-2.0,30.39,11111222 
TABS,ioos:station:wmo:42051:1,2011-07-02T08:00:00Z,29.6350,-93.6417,-2.0,30.44,11111222 
TABS,ioos:station:wmo:42051:1,2011-07-02T08:30:00Z,29.6350,-93.6417,-2.0,30.48,11111222 
TABS,ioos:station:wmo:42051:1,2011-07-02T09:00:00Z,29.6350,-93.6417,-2.0,30.48,11111222 
TABS,ioos:station:wmo:42051:1,2011-07-02T09:30:00Z,29.6350,-93.6417,-2.0,30.45,11111222 
TABS,ioos:station:wmo:42051:1,2011-07-02T10:00:00Z,29.6350,-93.6417,-2.0,30.44,11111222 
TABS,ioos:station:wmo:42051:1,2011-07-02T10:30:00Z,29.6350,-93.6417,-2.0,30.45,11111222 
TABS,ioos:station:wmo:42051:1,2011-07-02T11:00:00Z,29.6350,-93.6417,-2.0,30.43,11111222 
TABS,ioos:station:wmo:42051:1,2011-07-02T11:30:00Z,29.6350,-93.6417,-2.0,30.43,11111222 
TABS,ioos:station:wmo:42051:1,2011-07-02T12:00:00Z,29.6350,-93.6417,-2.0,30.41,11111222 
TABS,ioos:station:wmo:42051:1,2011-07-02T12:30:00Z,29.6350,-93.6417,-2.0,30.4,11111222 
TABS,ioos:station:wmo:42051:1,2011-07-02T13:00:00Z,29.6350,-93.6417,-2.0,30.39,11111222 
TABS,ioos:station:wmo:42051:1,2011-07-02T13:30:00Z,29.6350,-93.6417,-2.0,30.4,11111222 
TABS,ioos:station:wmo:42051:1,2011-07-02T14:00:00Z,29.6350,-93.6417,-2.0,30.42,11111222 
TABS,ioos:station:wmo:42051:1,2011-07-02T14:30:00Z,29.6350,-93.6417,-2.0,30.43,11111222 
TABS,ioos:station:wmo:42051:1,2011-07-02T15:00:00Z,29.6350,-93.6417,-2.0,30.49,11111222 
TABS,ioos:station:wmo:42051:1,2011-07-02T15:30:00Z,29.6350,-93.6417,-2.0,30.52,11111222 
TABS,ioos:station:wmo:42051:1,2011-07-02T16:00:00Z,29.6350,-93.6417,-2.0,30.54,11111222 
TABS,ioos:station:wmo:42051:1,2011-07-02T16:30:00Z,29.6350,-93.6417,-2.0,30.52,11111222 
TABS,ioos:station:wmo:42051:1,2011-07-02T17:00:00Z,29.6350,-93.6417,-2.0,30.53,11111222 
TABS,ioos:station:wmo:42051:1,2011-07-02T17:30:00Z,29.6350,-93.6417,-2.0,30.54,11111222 
TABS,ioos:station:wmo:42051:1,2011-07-02T18:00:00Z,29.6350,-93.6417,-2.0,30.55,11111222 
TABS,ioos:station:wmo:42051:1,2011-07-02T18:30:00Z,29.6350,-93.6417,-2.0,30.53,11111222 
TABS,ioos:station:wmo:42051:1,2011-07-02T19:00:00Z,29.6350,-93.6417,-2.0,30.53,11111222 
TABS,ioos:station:wmo:42051:1,2011-07-02T19:30:00Z,29.6350,-93.6417,-2.0,30.52,11111222 
TABS,ioos:station:wmo:42051:1,2011-07-02T20:00:00Z,29.6350,-93.6417,-2.0,30.51,11111222 
TABS,ioos:station:wmo:42051:1,2011-07-02T20:30:00Z,29.6350,-93.6417,-2.0,30.55,11111222 
TABS,ioos:station:wmo:42051:1,2011-07-02T21:00:00Z,29.6350,-93.6417,-2.0,30.89,11111222 
TABS,ioos:station:wmo:42051:1,2011-07-02T21:30:00Z,29.6350,-93.6417,-2.0,31.22,11111222 
TABS,ioos:station:wmo:42051:1,2011-07-02T22:00:00Z,29.6350,-93.6417,-2.0,31.2,11111222 
TABS,ioos:station:wmo:42051:1,2011-07-02T22:30:00Z,29.6350,-93.6417,-2.0,31.5,11111222 
TABS,ioos:station:wmo:42051:1,2011-07-02T23:00:00Z,29.6350,-93.6417,-2.0,31.5,11111222 
TABS,ioos:station:wmo:42051:1,2011-07-02T23:30:00Z,29.6350,-93.6417,-2.0,31.2,11111222 
TABS,ioos:station:wmo:42051:1,2011-07-03T00:00:00Z,29.6350,-93.6417,-2.0,31.2,11111222 
TABS,ioos:station:wmo:42051:1,2011-07-03T00:30:00Z,29.6350,-93.6417,-2.0,31.13,11111222 
TABS,ioos:station:wmo:42051:1,2011-07-03T01:00:00Z,29.6350,-93.6417,-2.0,31.15,11111222 
TABS,ioos:station:wmo:42051:1,2011-07-03T01:30:00Z,29.6350,-93.6417,-2.0,31.25,11111222 
TABS,ioos:station:wmo:42051:1,2011-07-03T02:00:00Z,29.6350,-93.6417,-2.0,31.25,11111222 
TABS,ioos:station:wmo:42051:1,2011-07-03T02:30:00Z,29.6350,-93.6417,-2.0,31.21,11111222 
TABS,ioos:station:wmo:42051:1,2011-07-03T03:00:00Z,29.6350,-93.6417,-2.0,31.38,11111222 
TABS,ioos:station:wmo:42051:1,2011-07-03T03:30:00Z,29.6350,-93.6417,-2.0,31.3,11111222 
TABS,ioos:station:wmo:42051:1,2011-07-03T04:00:00Z,29.6350,-93.6417,-2.0,31.26,11111222 
TABS,ioos:station:wmo:42051:1,2011-07-03T04:30:00Z,29.6350,-93.6417,-2.0,31.55,11111222 
TABS,ioos:station:wmo:42051:1,2011-07-03T05:00:00Z,29.6350,-93.6417,-2.0,31.59,11111222 
TABS,ioos:station:wmo:42051:1,2011-07-03T05:30:00Z,29.6350,-93.6417,-2.0,31.38,11111222 
TABS,ioos:station:wmo:42051:1,2011-07-03T06:00:00Z,29.6350,-93.6417,-2.0,31.34,11111222 
TABS,ioos:station:wmo:42051:1,2011-07-03T06:30:00Z,29.6350,-93.6417,-2.0,31.23,11111222 
TABS,ioos:station:wmo:42051:1,2011-07-03T07:00:00Z,29.6350,-93.6417,-2.0,31.14,11111222 
TABS,ioos:station:wmo:42051:1,2011-07-03T07:30:00Z,29.6350,-93.6417,-2.0,31.11,11111222 
TABS,ioos:station:wmo:42051:1,2011-07-03T08:00:00Z,29.6350,-93.6417,-2.0,31.09,11111222 
TABS,ioos:station:wmo:42051:1,2011-07-03T08:30:00Z,29.6350,-93.6417,-2.0,31.03,11111222 
TABS,ioos:station:wmo:42051:1,2011-07-03T09:00:00Z,29.6350,-93.6417,-2.0,30.97,11111222 
TABS,ioos:station:wmo:42051:1,2011-07-03T09:30:00Z,29.6350,-93.6417,-2.0,30.96,11111222 
TABS,ioos:station:wmo:42051:1,2011-07-03T10:00:00Z,29.6350,-93.6417,-2.0,30.9,11111222 
TABS,ioos:station:wmo:42051:1,2011-07-03T10:30:00Z,29.6350,-93.6417,-2.0,30.86,11111222 
TABS,ioos:station:wmo:42051:1,2011-07-03T11:00:00Z,29.6350,-93.6417,-2.0,30.64,11111222 
TABS,ioos:station:wmo:42051:1,2011-07-03T11:30:00Z,29.6350,-93.6417,-2.0,30.42,11111222 
TABS,ioos:station:wmo:42051:1,2011-07-03T12:00:00Z,29.6350,-93.6417,-2.0,30.34,11111222 
TABS,ioos:station:wmo:42051:1,2011-07-03T12:30:00Z,29.6350,-93.6417,-2.0,30.13,11111222 
TABS,ioos:station:wmo:42051:1,2011-07-03T13:00:00Z,29.6350,-93.6417,-2.0,29.98,11111222 
TABS,ioos:station:wmo:42051:1,2011-07-03T13:30:00Z,29.6350,-93.6417,-2.0,29.85,11111222 
TABS,ioos:station:wmo:42051:1,2011-07-03T14:00:00Z,29.6350,-93.6417,-2.0,29.86,11111222 
TABS,ioos:station:wmo:42051:1,2011-07-03T14:30:00Z,29.6350,-93.6417,-2.0,29.84,11111222 
TABS,ioos:station:wmo:42051:1,2011-07-03T15:00:00Z,29.6350,-93.6417,-2.0,29.85,11111222 
TABS,ioos:station:wmo:42051:1,2011-07-03T15:30:00Z,29.6350,-93.6417,-2.0,29.82,11111222 
TABS,ioos:station:wmo:42051:1,2011-07-03T16:00:00Z,29.6350,-93.6417,-2.0,29.79,11111222 
TABS,ioos:station:wmo:42051:1,2011-07-03T16:30:00Z,29.6350,-93.6417,-2.0,29.79,11111222 
TABS,ioos:station:wmo:42051:1,2011-07-03T17:00:00Z,29.6350,-93.6417,-2.0,29.89,11111222 
TABS,ioos:station:wmo:42051:1,2011-07-03T17:30:00Z,29.6350,-93.6417,-2.0,29.91,11111222 
TABS,ioos:station:wmo:42051:1,2011-07-03T18:00:00Z,29.6350,-93.6417,-2.0,29.9,11111222 
TABS,ioos:station:wmo:42051:1,2011-07-03T18:30:00Z,29.6350,-93.6417,-2.0,29.85,11111222 
TABS,ioos:station:wmo:42051:1,2011-07-03T19:00:00Z,29.6350,-93.6417,-2.0,29.95,11111222 
TABS,ioos:station:wmo:42051:1,2011-07-03T19:30:00Z,29.6350,-93.6417,-2.0,30.53,11111222 
TABS,ioos:station:wmo:42051:1,2011-07-03T20:00:00Z,29.6350,-93.6417,-2.0,30.47,11111222 
TABS,ioos:station:wmo:42051:1,2011-07-03T20:30:00Z,29.6350,-93.6417,-2.0,30.8,11111222 
TABS,ioos:station:wmo:42051:1,2011-07-03T21:00:00Z,29.6350,-93.6417,-2.0,31.0,11111222 
TABS,ioos:station:wmo:42051:1,2011-07-03T21:30:00Z,29.6350,-93.6417,-2.0,31.35,11111222 
TABS,ioos:station:wmo:42051:1,2011-07-03T22:00:00Z,29.6350,-93.6417,-2.0,31.72,11111222 
TABS,ioos:station:wmo:42051:1,2011-07-03T22:30:00Z,29.6350,-93.6417,-2.0,31.72,11111222 
TABS,ioos:station:wmo:42051:1,2011-07-03T23:00:00Z,29.6350,-93.6417,-2.0,31.57,11111222 
TABS,ioos:station:wmo:42051:1,2011-07-03T23:30:00Z,29.6350,-93.6417,-2.0,31.43,11111222 
TABS,ioos:station:wmo:42051:1,2011-07-04T00:00:00Z,29.6350,-93.6417,-2.0,31.36,11111222 
TABS,ioos:station:wmo:42051:1,2011-07-04T00:30:00Z,29.6350,-93.6417,-2.0,31.31,11111222 
TABS,ioos:station:wmo:42051:1,2011-07-04T01:00:00Z,29.6350,-93.6417,-2.0,31.18,11111222 
TABS,ioos:station:wmo:42051:1,2011-07-04T01:30:00Z,29.6350,-93.6417,-2.0,31.06,11111222 
TABS,ioos:station:wmo:42051:1,2011-07-04T02:00:00Z,29.6350,-93.6417,-2.0,30.99,11111222 
TABS,ioos:station:wmo:42051:1,2011-07-04T02:30:00Z,29.6350,-93.6417,-2.0,30.88,11111222 
TABS,ioos:station:wmo:42051:1,2011-07-04T03:00:00Z,29.6350,-93.6417,-2.0,30.72,11111222 
TABS,ioos:station:wmo:42051:1,2011-07-04T03:30:00Z,29.6350,-93.6417,-2.0,30.64,11111222 
TABS,ioos:station:wmo:42051:1,2011-07-04T04:00:00Z,29.6350,-93.6417,-2.0,30.57,11111222 
TABS,ioos:station:wmo:42051:1,2011-07-04T04:30:00Z,29.6350,-93.6417,-2.0,30.54,11111222 
TABS,ioos:station:wmo:42051:1,2011-07-04T05:00:00Z,29.6350,-93.6417,-2.0,30.53,11111222 
TABS,ioos:station:wmo:42051:1,2011-07-04T05:30:00Z,29.6350,-93.6417,-2.0,30.57,11111222 
TABS,ioos:station:wmo:42051:1,2011-07-04T06:00:00Z,29.6350,-93.6417,-2.0,30.65,11111222 
TABS,ioos:station:wmo:42051:1,2011-07-04T06:30:00Z,29.6350,-93.6417,-2.0,30.62,11111222 
TABS,ioos:station:wmo:42051:1,2011-07-04T07:00:00Z,29.6350,-93.6417,-2.0,30.57,11111222 
TABS,ioos:station:wmo:42051:1,2011-07-04T07:30:00Z,29.6350,-93.6417,-2.0,30.58,11111222 
TABS,ioos:station:wmo:42051:1,2011-07-04T08:00:00Z,29.6350,-93.6417,-2.0,30.56,11111222 
TABS,ioos:station:wmo:42051:1,2011-07-04T08:30:00Z,29.6350,-93.6417,-2.0,30.54,11111222 
TABS,ioos:station:wmo:42051:1,2011-07-04T09:00:00Z,29.6350,-93.6417,-2.0,30.51,11111222 
TABS,ioos:station:wmo:42051:1,2011-07-04T09:30:00Z,29.6350,-93.6417,-2.0,30.48,11111222 
TABS,ioos:station:wmo:42051:1,2011-07-04T10:00:00Z,29.6350,-93.6417,-2.0,30.46,11111222 
TABS,ioos:station:wmo:42051:1,2011-07-04T10:30:00Z,29.6350,-93.6417,-2.0,30.4,11111222 
TABS,ioos:station:wmo:42051:1,2011-07-04T11:00:00Z,29.6350,-93.6417,-2.0,30.36,11111222 
TABS,ioos:station:wmo:42051:1,2011-07-04T11:30:00Z,29.6350,-93.6417,-2.0,30.33,11111222 
TABS,ioos:station:wmo:42051:1,2011-07-04T12:00:00Z,29.6350,-93.6417,-2.0,30.26,11111222 
TABS,ioos:station:wmo:42051:1,2011-07-04T12:30:00Z,29.6350,-93.6417,-2.0,30.21,11111222 
TABS,ioos:station:wmo:42051:1,2011-07-04T13:00:00Z,29.6350,-93.6417,-2.0,30.17,11111222 
TABS,ioos:station:wmo:42051:1,2011-07-04T13:30:00Z,29.6350,-93.6417,-2.0,30.12,11111222 
TABS,ioos:station:wmo:42051:1,2011-07-04T14:00:00Z,29.6350,-93.6417,-2.0,29.98,11111222 
TABS,ioos:station:wmo:42051:1,2011-07-04T14:30:00Z,29.6350,-93.6417,-2.0,30.0,11111222 
TABS,ioos:station:wmo:42051:1,2011-07-04T15:00:00Z,29.6350,-93.6417,-2.0,30.07,11111222 
TABS,ioos:station:wmo:42051:1,2011-07-04T15:30:00Z,29.6350,-93.6417,-2.0,30.06,11111222 
TABS,ioos:station:wmo:42051:1,2011-07-04T16:00:00Z,29.6350,-93.6417,-2.0,30.07,11111222 
TABS,ioos:station:wmo:42051:1,2011-07-04T16:30:00Z,29.6350,-93.6417,-2.0,30.11,11111222 
TABS,ioos:station:wmo:42051:1,2011-07-04T17:00:00Z,29.6350,-93.6417,-2.0,30.02,11111222 
TABS,ioos:station:wmo:42051:1,2011-07-04T17:30:00Z,29.6350,-93.6417,-2.0,30.0,11111222 
TABS,ioos:station:wmo:42051:1,2011-07-04T18:00:00Z,29.6350,-93.6417,-2.0,30.12,11111222 
TABS,ioos:station:wmo:42051:1,2011-07-04T18:30:00Z,29.6350,-93.6417,-2.0,30.29,11111222 
TABS,ioos:station:wmo:42051:1,2011-07-04T19:00:00Z,29.6350,-93.6417,-2.0,30.13,11111222 
TABS,ioos:station:wmo:42051:1,2011-07-04T19:30:00Z,29.6350,-93.6417,-2.0,26.8,11111222 
TABS,ioos:station:wmo:42051:1,2011-07-05T03:30:00Z,29.6350,-93.6417,-2.0,30.79,11111222 
TABS,ioos:station:wmo:42051:1,2011-07-05T04:00:00Z,29.6350,-93.6417,-2.0,30.83,11111222 
TABS,ioos:station:wmo:42051:1,2011-07-05T04:30:00Z,29.6350,-93.6417,-2.0,31.08,11111222 
TABS,ioos:station:wmo:42051:1,2011-07-05T05:00:00Z,29.6350,-93.6417,-2.0,31.19,11111222 
TABS,ioos:station:wmo:42051:1,2011-07-05T05:30:00Z,29.6350,-93.6417,-2.0,31.16,11111222 
TABS,ioos:station:wmo:42051:1,2011-07-05T06:00:00Z,29.6350,-93.6417,-2.0,31.07,11111222 
TABS,ioos:station:wmo:42051:1,2011-07-05T06:30:00Z,29.6350,-93.6417,-2.0,31.02,11111222 
TABS,ioos:station:wmo:42051:1,2011-07-05T07:00:00Z,29.6350,-93.6417,-2.0,31.0,11111222 
TABS,ioos:station:wmo:42051:1,2011-07-05T07:30:00Z,29.6350,-93.6417,-2.0,30.93,11111222 
TABS,ioos:station:wmo:42051:1,2011-07-05T08:00:00Z,29.6350,-93.6417,-2.0,30.83,11111222 
TABS,ioos:station:wmo:42051:1,2011-07-05T08:30:00Z,29.6350,-93.6417,-2.0,30.74,11111222 
TABS,ioos:station:wmo:42051:1,2011-07-05T09:00:00Z,29.6350,-93.6417,-2.0,30.67,11111222 
TABS,ioos:station:wmo:42051:1,2011-07-05T09:30:00Z,29.6350,-93.6417,-2.0,30.62,11111222 
TABS,ioos:station:wmo:42051:1,2011-07-05T10:00:00Z,29.6350,-93.6417,-2.0,30.59,11111222 
TABS,ioos:station:wmo:42051:1,2011-07-05T10:30:00Z,29.6350,-93.6417,-2.0,30.55,11111222 
TABS,ioos:station:wmo:42051:1,2011-07-05T11:00:00Z,29.6350,-93.6417,-2.0,30.53,11111222 
TABS,ioos:station:wmo:42051:1,2011-07-05T11:30:00Z,29.6350,-93.6417,-2.0,30.48,11111222 
TABS,ioos:station:wmo:42051:1,2011-07-05T12:00:00Z,29.6350,-93.6417,-2.0,30.5,11111222 
TABS,ioos:station:wmo:42051:1,2011-07-05T12:30:00Z,29.6350,-93.6417,-2.0,30.49,11111222 
TABS,ioos:station:wmo:42051:1,2011-07-05T13:00:00Z,29.6350,-93.6417,-2.0,30.52,11111222 
TABS,ioos:station:wmo:42051:1,2011-07-05T13:30:00Z,29.6350,-93.6417,-2.0,30.49,11111222 
TABS,ioos:station:wmo:42051:1,2011-07-05T14:00:00Z,29.6350,-93.6417,-2.0,30.48,11111222 
TABS,ioos:station:wmo:42051:1,2011-07-05T14:30:00Z,29.6350,-93.6417,-2.0,30.52,11111222 
TABS,ioos:station:wmo:42051:1,2011-07-05T15:00:00Z,29.6350,-93.6417,-2.0,30.52,11111222 
TABS,ioos:station:wmo:42051:1,2011-07-05T15:30:00Z,29.6350,-93.6417,-2.0,30.48,11111222 
TABS,ioos:station:wmo:42051:1,2011-07-05T16:00:00Z,29.6350,-93.6417,-2.0,30.46,11111222 
TABS,ioos:station:wmo:42051:1,2011-07-05T16:30:00Z,29.6350,-93.6417,-2.0,30.44,11111222 
TABS,ioos:station:wmo:42051:1,2011-07-05T17:00:00Z,29.6350,-93.6417,-2.0,30.48,11111222 
TABS,ioos:station:wmo:42051:1,2011-07-05T17:30:00Z,29.6350,-93.6417,-2.0,30.48,11111222 
TABS,ioos:station:wmo:42051:1,2011-07-05T18:00:00Z,29.6350,-93.6417,-2.0,30.45,11111222 
TABS,ioos:station:wmo:42051:1,2011-07-05T18:30:00Z,29.6350,-93.6417,-2.0,30.47,11111222 
TABS,ioos:station:wmo:42051:1,2011-07-05T19:00:00Z,29.6350,-93.6417,-2.0,30.47,11111222 
TABS,ioos:station:wmo:42051:1,2011-07-05T19:30:00Z,29.6350,-93.6417,-2.0,30.42,11111222 
TABS,ioos:station:wmo:42051:1,2011-07-05T20:00:00Z,29.6350,-93.6417,-2.0,30.51,11111222 
TABS,ioos:station:wmo:42051:1,2011-07-05T20:30:00Z,29.6350,-93.6417,-2.0,30.56,11111222 
TABS,ioos:station:wmo:42051:1,2011-07-05T21:00:00Z,29.6350,-93.6417,-2.0,30.53,11111222 
TABS,ioos:station:wmo:42051:1,2011-07-05T21:30:00Z,29.6350,-93.6417,-2.0,30.52,11111222 
TABS,ioos:station:wmo:42051:1,2011-07-05T22:00:00Z,29.6350,-93.6417,-2.0,30.53,11111222 
TABS,ioos:station:wmo:42051:1,2011-07-05T22:30:00Z,29.6350,-93.6417,-2.0,30.51,11111222 
TABS,ioos:station:wmo:42051:1,2011-07-05T23:00:00Z,29.6350,-93.6417,-2.0,30.56,11111222 
TABS,ioos:station:wmo:42051:1,2011-07-05T23:30:00Z,29.6350,-93.6417,-2.0,30.53,11111222 
TABS,ioos:station:wmo:42051:1,2011-07-06T00:00:00Z,29.6350,-93.6417,-2.0,30.52,11111222 
TABS,ioos:station:wmo:42051:1,2011-07-06T00:30:00Z,29.6350,-93.6417,-2.0,30.5,11111222 
TABS,ioos:station:wmo:42051:1,2011-07-06T01:00:00Z,29.6350,-93.6417,-2.0,30.55,11111222 
TABS,ioos:station:wmo:42051:1,2011-07-06T01:30:00Z,29.6350,-93.6417,-2.0,30.64,11111222 
TABS,ioos:station:wmo:42051:1,2011-07-06T02:00:00Z,29.6350,-93.6417,-2.0,30.64,11111222 
TABS,ioos:station:wmo:42051:1,2011-07-06T02:30:00Z,29.6350,-93.6417,-2.0,30.77,11111222 
TABS,ioos:station:wmo:42051:1,2011-07-06T03:00:00Z,29.6350,-93.6417,-2.0,30.9,11111222 
TABS,ioos:station:wmo:42051:1,2011-07-06T03:30:00Z,29.6350,-93.6417,-2.0,30.99,11111222 
TABS,ioos:station:wmo:42051:1,2011-07-06T04:00:00Z,29.6350,-93.6417,-2.0,31.11,11111222 
TABS,ioos:station:wmo:42051:1,2011-07-06T04:30:00Z,29.6350,-93.6417,-2.0,31.23,11111222 
TABS,ioos:station:wmo:42051:1,2011-07-06T05:00:00Z,29.6350,-93.6417,-2.0,31.29,11111222 
TABS,ioos:station:wmo:42051:1,2011-07-06T05:30:00Z,29.6350,-93.6417,-2.0,31.29,11111222 
TABS,ioos:station:wmo:42051:1,2011-07-06T06:00:00Z,29.6350,-93.6417,-2.0,31.27,11111222 
TABS,ioos:station:wmo:42051:1,2011-07-06T06:30:00Z,29.6350,-93.6417,-2.0,31.19,11111222 
TABS,ioos:station:wmo:42051:1,2011-07-06T07:00:00Z,29.6350,-93.6417,-2.0,31.12,11111222 
TABS,ioos:station:wmo:42051:1,2011-07-06T07:30:00Z,29.6350,-93.6417,-2.0,31.01,11111222 
TABS,ioos:station:wmo:42051:1,2011-07-06T08:00:00Z,29.6350,-93.6417,-2.0,30.94,11111222 
TABS,ioos:station:wmo:42051:1,2011-07-06T08:30:00Z,29.6350,-93.6417,-2.0,30.93,11111222 
TABS,ioos:station:wmo:42051:1,2011-07-06T09:00:00Z,29.6350,-93.6417,-2.0,30.84,11111222 
TABS,ioos:station:wmo:42051:1,2011-07-06T09:30:00Z,29.6350,-93.6417,-2.0,30.77,11111222 
TABS,ioos:station:wmo:42051:1,2011-07-06T10:00:00Z,29.6350,-93.6417,-2.0,30.7,11111222 
TABS,ioos:station:wmo:42051:1,2011-07-06T10:30:00Z,29.6350,-93.6417,-2.0,30.57,11111222 
TABS,ioos:station:wmo:42051:1,2011-07-06T11:00:00Z,29.6350,-93.6417,-2.0,30.4,11111222 
TABS,ioos:station:wmo:42051:1,2011-07-06T11:30:00Z,29.6350,-93.6417,-2.0,30.31,11111222 
TABS,ioos:station:wmo:42051:1,2011-07-06T12:00:00Z,29.6350,-93.6417,-2.0,30.28,11111222 
TABS,ioos:station:wmo:42051:1,2011-07-06T12:30:00Z,29.6350,-93.6417,-2.0,30.3,11111222 
TABS,ioos:station:wmo:42051:1,2011-07-06T13:00:00Z,29.6350,-93.6417,-2.0,30.31,11111222 
TABS,ioos:station:wmo:42051:1,2011-07-06T13:30:00Z,29.6350,-93.6417,-2.0,30.36,11111222 
TABS,ioos:station:wmo:42051:1,2011-07-06T14:00:00Z,29.6350,-93.6417,-2.0,30.39,11111222 
TABS,ioos:station:wmo:42051:1,2011-07-06T14:30:00Z,29.6350,-93.6417,-2.0,30.42,11111222 
TABS,ioos:station:wmo:42051:1,2011-07-06T15:00:00Z,29.6350,-93.6417,-2.0,30.45,11111222 
TABS,ioos:station:wmo:42051:1,2011-07-06T15:30:00Z,29.6350,-93.6417,-2.0,30.43,11111222 
TABS,ioos:station:wmo:42051:1,2011-07-06T16:00:00Z,29.6350,-93.6417,-2.0,30.39,11111222 
TABS,ioos:station:wmo:42051:1,2011-07-06T16:30:00Z,29.6350,-93.6417,-2.0,30.28,11111222 
TABS,ioos:station:wmo:42051:1,2011-07-06T17:00:00Z,29.6350,-93.6417,-2.0,30.24,11111222 
TABS,ioos:station:wmo:42051:1,2011-07-06T17:30:00Z,29.6350,-93.6417,-2.0,30.26,11111222 
TABS,ioos:station:wmo:42051:1,2011-07-06T18:00:00Z,29.6350,-93.6417,-2.0,30.3,11111222 
TABS,ioos:station:wmo:42051:1,2011-07-06T18:30:00Z,29.6350,-93.6417,-2.0,30.35,11111222 
TABS,ioos:station:wmo:42051:1,2011-07-06T19:00:00Z,29.6350,-93.6417,-2.0,30.43,11111222 
TABS,ioos:station:wmo:42051:1,2011-07-06T19:30:00Z,29.6350,-93.6417,-2.0,30.5,11111222 
TABS,ioos:station:wmo:42051:1,2011-07-06T20:00:00Z,29.6350,-93.6417,-2.0,30.57,11111222 
TABS,ioos:station:wmo:42051:1,2011-07-06T20:30:00Z,29.6350,-93.6417,-2.0,30.78,11111222 
TABS,ioos:station:wmo:42051:1,2011-07-06T21:00:00Z,29.6350,-93.6417,-2.0,30.77,11111222 
TABS,ioos:station:wmo:42051:1,2011-07-06T21:30:00Z,29.6350,-93.6417,-2.0,30.96,11111222 